Date,TemperatureHighF,TemperatureAvgF,TemperatureLowF,DewpointHighF,DewpointAvgF,DewpointLowF,HumidityHigh,HumidityAvg,HumidityLow,PressureMaxIn,PressureMinIn,WindSpeedMaxMPH,WindSpeedAvgMPH,GustSpeedMaxMPH,PrecipitationSumIn
2013-3-1,58.8,44.7,29.5,20.4,13.6,4.9,45,29,18,30.56,30.37,10,4,14,0.00
2013-3-2,65.8,48.5,34.4,23.3,21.1,18.9,57,36,17,30.53,30.26,7,1,10,0.00
2013-3-3,68.4,53.1,37.9,22.4,15.7,-7.5,49,26,5,30.26,29.89,8,3,11,0.00
2013-3-4,61.8,54.2,44.5,23.2,19.5,14.2,38,26,16,30.13,29.78,13,4,20,0.00
2013-3-5,61.2,46.3,29.3,22.3,17.4,9.2,67,35,13,30.39,30.13,5,1,8,0.00
2013-3-6,66.9,54.4,45.3,25.8,22.2,18.2,40,29,18,30.28,29.95,8,3,12,0.00
2013-3-7,70.1,55.4,34.2,22.1,17.7,13.0,52,25,13,30.10,29.88,9,2,16,0.00
2013-3-8,60.9,48.3,39.9,42.5,25.9,13.4,86,47,20,29.97,29.75,13,4,19,0.19
2013-3-9,44.9,38.9,32.5,34.4,23.6,15.5,84,56,31,30.09,29.85,10,4,17,0.00
2013-3-10,51.4,41.8,29.0,27.8,22.0,14.1,84,49,26,30.32,30.19,9,3,13,0.00
2013-3-11,62.5,47.5,33.9,20.7,16.5,4.9,52,32,11,30.35,30.10,11,4,19,0.00
2013-3-12,67.1,51.5,34.8,24.3,21.6,19.4,59,33,17,30.31,30.16,8,2,11,0.00
2013-3-13,69.9,53.1,34.7,26.7,22.3,16.1,65,34,15,30.42,30.23,7,1,12,0.00
2013-3-14,76.6,57.0,41.7,23.1,18.6,9.5,42,25,8,30.38,30.17,6,2,8,0.00
2013-3-15,79.1,59.0,39.1,21.6,15.7,5.5,43,21,6,30.21,29.91,5,1,6,0.00
2013-3-16,71.6,61.2,49.5,33.5,20.4,13.0,45,21,13,29.92,29.68,12,4,16,0.00
2013-3-17,68.3,55.3,43.7,35.2,20.3,-17.7,65,35,3,29.85,29.67,12,4,19,0.00
2013-3-18,66.1,52.5,38.0,11.7,6.1,-0.3,32,17,7,30.03,29.85,12,3,17,0.00
2013-3-19,62.0,50.9,40.0,18.2,11.8,3.2,32,21,13,30.23,30.02,8,2,13,0.00
2013-3-20,62.7,49.4,30.6,26.4,18.1,14.5,57,31,17,30.33,29.93,6,2,14,0.00
2013-3-21,70.9,58.6,50.3,32.2,18.1,-8.6,43,25,5,29.92,29.60,14,5,18,0.00
2013-3-22,65.8,51.8,34.6,26.8,13.0,4.2,39,23,10,29.83,29.63,11,3,17,0.00
2013-3-23,51.2,40.6,31.4,27.4,2.5,-18.8,52,24,7,30.21,29.73,19,8,29,0.00
2013-3-24,52.2,36.9,22.8,-2.1,-6.9,-13.1,33,16,9,30.33,30.09,12,2,20,0.00
2013-3-26,65.6,58.9,51.0,12.2,10.5,8.3,20,15,11,30.30,30.03,9,7,14,0.00
2013-3-27,70.8,59.1,45.8,14.9,11.0,4.3,27,16,9,30.11,29.93,7,3,11,0.00
2013-3-28,71.5,61.2,46.0,23.2,15.3,8.0,30,17,9,30.10,29.95,10,2,17,0.00
2013-3-29,72.7,60.1,45.8,25.1,19.8,12.4,44,23,10,30.15,29.99,6,1,11,0.00
2013-3-30,72.9,59.0,40.5,26.1,20.3,14.8,46,24,11,30.16,29.94,7,2,11,0.00
2013-3-31,73.0,60.1,48.4,31.5,27.0,24.6,44,30,17,30.07,29.88,6,1,11,0.00